Volver al catálogo

GORIZONT 15

ActivoComunicacionesGEO
NORAD 19017·PAYLOAD·🇷🇺 Russia

Lanzado Mar 31, 1988 desde Baikonur Cosmodrome

Loading…

TLE

ActualizadoSource: Space-Track

Época: Sep 14, 2026, 14:21 UTC

1 19017U 88028A   26257.59841444 -.00000126  00000-0  00000-0 0  9995
2 19017  12.6051 330.4703 0033815 199.5074 156.2865  0.97828486120378

Sigue GORIZONT 15 en tiempo real con AllMySat

Download on the App Store